67P/Churyumov-Gerasimenko 

Epoch 2002 Sept. 3.0 TT = JDT 2452520.5  

T 2002 Aug. 18.30919 TT                                 Nakano

q   1.2923377            (2000.0)            P               Q

n   0.15005316     Peri.   11.45139     +0.46416553     -0.88049899

a   3.5072975      Node    50.96930     +0.80255533     +0.37207932

e   0.6315289      Incl.    7.12051     +0.37477366     +0.29373204

P   6.57

From 1131 observations 1969-2003, mean residual 0".89.

   Nongravitational parameters A1 = +0.05 +/- 0.00, A2 = +0.0096 +/- 0.0000.

Residuals in seconds of arc 

1969/                     960110 764  0.8-  0.4-    030201 H41  0.3+  0.2+  

690909 210  2.6-  0.6-    960112 360  1.1-  0.3-    030201 H41 (0.1+  2.5+) 

690909 210 (8.0-  2.9-)   960112 360  0.9-  0.4-    030201 048  1.7+  0.7+  

690911 210 (5.7-  0.3+)   960113 605  0.5-  0.7-    030201 048  1.7+  0.6+  

690913 020 (8.5-  2.9-)   960113 605  0.4-  0.5-    030201 048  0.9+  0.6+  

690921 210 (4.2-  2.1-)   960113 605  0.5-  0.7-    030201 048  0.8+  0.7+  

691031 796 (3.6-  1.7-)   960113 046  1.0-  0.6+    030201 048  1.5+  0.4+  

691101 370 (4.6-  4.8-)   960113 046  1.1-  0.5+    030201 048  1.5+  0.6+  

691104 020  2.0+  1.0-    960113 046  1.0-  0.6+    030201 048  1.6+  0.5+  

691104 370 (5.2-  3.0-)   960115 605  0.7-  0.9-    030201 048  0.7+  0.9+  

691105 691 (2.0-  5.0+)   960115 605  0.2-  1.0-    030201 048  0.8+  0.9+  

691105 691 (2.0-  4.8+)   960116 107  0.7+  1.6-    030201 048  0.4+  0.1+  

691107 046 (5.3-  3.0-)   960116 107 (2.5+  1.6-)   030201 235  0.6+  1.0+  

691107 046 (3.9-  2.8-)   960120 691  0.9-  0.1-    030202 A02  0.7-  0.4-  

691108 095(10.7-  4.3-)   960120 801  1.3-  0.9-    030202 A02  0.5+  0.2+  

691108 095  0.8-  0.7-    960120 801  0.8-  0.6-    030202 A02 (1.8+  2.1+) 

691109 323  1.0+  0.5-    960121 764  1.0-  1.4-    030202 A46  0.0   0.2+  

691113 796 (4.7-  3.5-)   960121 691  0.1-  0.1+    030202 A46  0.1-  1.8+  

691113 796  0.7+  1.6+    960121 691  0.4+  0.4+    030202 A46 (4.6-  1.2+) 

691115 095(15.9+  5.1-)   960122 764 (2.3-  2.2-)   030202 A46  0.6+  1.0+  

691115 095(21.1-  4.0+)   960122 605 (0.6-  2.3-)   030202 A46  0.0   0.8+  

691115 095  1.0+  0.6+    960122 605  1.2-  1.2-    030202 A46  0.4+  1.3+  

691115 020  1.6-  2.0-    960122 612 (2.1+  3.0-)   030202 A46 (2.0-  0.4+) 

691116 210 (4.7-  0.9-)   960122 612 (1.2+  2.5-)   030202 A46  0.3-  0.2+  

691116 210 (5.2-  0.3-)   960125 764  0.2-  1.0-    030202 H43 (2.2+  1.1+) 

691116 210  0.2+  2.0-    960126 764  1.0-  0.1-    030202 H43  0.6+  0.4+  

691117 046  2.2-  1.7-    960128 764  1.2-  0.3-    030204 H43  0.5-  0.7+  

691117 210  2.2-  2.2-    960129 612  0.1-  1.5-    030204 H43  0.9-  0.5-  

691117 210  1.0-  0.9-    960129 605  0.6+  1.0-    030205 H43  0.4+  1.0+  

691118 020 (2.8-  1.8+)   960129 605  0.4-  1.2-    030205 H43  0.9-  0.3+  

691118 020  1.3-  0.1-    960129 612  0.1-  1.1-    030205 608 (3.3-  0.9-) 

691119 123  0.1+  0.5+    960131 046  1.1-  0.3-    030205 608  1.7-  1.6-  

691120 123 (5.0-  1.8+)   960131 046  0.9-  0.3-    030205 608 (2.2-  1.3-) 

691120 020 (5.6-  1.3+)   960131 046  1.0-  0.4-    030206 704 (3.1+  0.2+) 

691207 123 (3.6-  1.6+)   960208 107  0.0   1.7-    030206 704 (1.7+  2.0+) 

691207 210 (4.6-  1.1-)   960208 107 (0.4-  2.3-)   030206 704 (0.4-  3.1+) 

691208 123 (2.2+  4.3+)   960217 587  1.7-  1.8-    030206 704  0.3+  1.4+  

691208 693 (0.5-  3.9+)   960217 587  0.9-  1.5-    030206 704 (0.8-  2.3+) 

691209 123  2.4-  0.8+    960217 801  0.6-  0.8-    030206 360  0.3+  0.7+  

691209 020 (0.4+  3.5+)   960217 801  0.3+  0.5-    030206 360  0.1+  1.0+  

691209 020 (0.7-  3.1+)   960218 764  0.5-  0.7-    030207 235  0.5+  0.9+  

691211 123 (3.6-  1.4+)   960219 360  0.8-  1.0-    030208 H41  0.7-  0.6+  

691215 123 (3.0-  1.2+)   960219 360  1.0-  1.0-    030208 H41  0.5+  1.2+  

691216 123 (2.9-  0.4+)   960221 897  0.1-  1.4-    030208 H41 (2.6+  1.2+) 

691218 370  2.1+  0.1-    960221 897  0.2+  1.6-    030209 939  1.0-  0.9+  

691219 123  2.1+  0.5+    960223 605 (0.1+  2.4-)   030209 939  1.3-  0.6+  

691220 370  0.6+  0.4+    960223 605 (0.6-  2.4-)   030209 232 (2.5-  1.3+) 

1970/                     960224 764  0.4+  0.4+    030209 232  1.0+  1.5+  

700105 691 (1.1+  3.1+)   960226 764  0.5+  0.2+    030209 118  1.1-  1.0+  

700105 691  1.2+  2.7+    960228 118  0.8+  0.0     030209 939 (2.8-  0.8+) 

700107 046 (3.3-  2.7+)   960228 118  0.1-  0.5-    030209 118  0.2-  1.3+  

700113 046 (3.0-  0.5+)   960228 605  1.1+  1.9-    030209 939 (2.6-  0.6+) 

700201 046 (6.3-  0.1+)   960228 605  0.4+  1.6-    030209 118  0.0   1.2+  

700203 691  1.4-  1.8+    960308 605 (2.0+  1.5-)   030209 118  0.6+  0.9+  

700203 691  1.8-  2.1+    960308 605 (0.1-  2.2-)   030209 A02  1.0-  0.2-  

700204 020 (4.6-  1.1+)   960308 605 (0.2+  2.4-)   030209 A02  0.9-  0.0   

700204 020  2.3-  2.0-    960308 605 (0.1-  2.1-)   030209 A02  0.6-  0.4+  

700205 210(36.1+ 16.0-)   960310 360  0.6+  0.0     030209 340  0.0   1.1+  

700206 210 (1.0-  3.1+)   960310 360  0.4+  0.1-    030209 340  0.9-  0.1-  

700206 046 (4.2-  2.9-)   960312 605  0.3+  1.2-    030209 340  0.8+  1.1+  

700207 210(35.0+ 13.3-)   960312 605  0.5+  1.6-    030211 636  0.2+  0.7+  

700208 210(36.8+ 15.1-)   960315 605  1.3+  1.7-    030211 636  0.4+  0.8+  

700212 210(31.6+ 11.6-)   960315 605  0.9+  1.4-    030211 636  0.3-  0.7+  

700301 210 (6.9-  0.2+)   960316 801  0.7+  0.2-    030211 636  0.4+  1.3+  

700303 210  1.3-  1.0-    960316 801  0.8+  0.4-    030211 H43  0.2-  1.1+  

700305 210 (6.3+  1.7+)   960318 801  0.6+  0.5-    030211 H43 (0.5+  2.3+) 

700307 693 (4.8-  5.9+)   960318 801  0.8+  0.7-    030211 H43  1.1+  0.1-  

700307 693 (4.3-  6.1+)   960322 897  0.5+  1.4-    030211 H43  1.2+  1.7+  

700307 046(10.7-  3.4+)   960322 897  0.3-  1.4-    030212 H43  0.2+  0.5+  

700309 046 (0.2+  8.4-)   960323 801  0.8+  0.5-    030212 H43  0.2+  0.7-  

700310 046 (3.2-  4.5-)   960323 801  0.6+  0.6-    030212 235 (1.9+  2.6+) 

700508 691  0.9-  0.2+    960327 557  0.6+  0.2-    030212 048 (3.7+  0.6+) 

700508 691  2.2-  0.3+    960327 557  0.3+  0.2-    030212 048  0.7-  0.0   

1975/                     960407 360  0.8+  0.2-    030212 048  0.2-  1.0+  

750808 691  0.7+  1.9- Y  960407 360  0.7+  0.2-    030212 048  1.3-  1.7+  

750909 691  1.7+  1.1+    960409 587  0.1-  1.0-    030212 048  1.2+  1.5+  

751006 691  1.8+  0.5+    960409 587  0.6+  0.3-    030212 048  0.3-  1.0+  

751006 691  1.8+  0.5+    960412 897  1.2+  1.4-    030212 048 (0.2+  2.1+) 

751101 691  1.0+  1.8+    960412 897  0.9+  1.4-    030212 048 (0.4+  2.2+) 

751101 691  0.9+  1.0+    960413 353  1.6-  1.4-    030212 048  0.7-  1.3+  

751207 693  1.6+  2.2+    960413 353  1.1-  1.0-    030212 048  1.1+  1.6+  

1982/                     960413 353  1.0-  0.5-    030213 H41  0.6-  1.0+  

820531 675  0.5+  0.3+    960420 557  0.2+  0.4-    030213 H41  1.7-  0.4-  

820601 675  1.9+  1.1+    960420 557  0.4+  0.7-    030213 349  0.5-  1.3+  

820720 707  1.0-  0.7+    960421 421  0.4-  0.7-    030213 349  0.8+  0.8+  

820724 801  0.9+  2.0+    960421 421  0.2+  0.3+    030213 349  0.3-  0.7+  

820826 801 (0.7-  2.9+)   960421 421  1.1+  1.0-    030213 349  0.2-  1.1+  

820915 801  0.9-  1.0+    960422 801  0.8+  1.5-    030213 048  0.5-  1.5+  

820922 489 (3.7+  2.3+)   960422 801  0.7+  0.4-    030213 048 (2.6+  0.6+) 

820922 489 (3.7+  0.6-)   960422 360  0.5+  0.3-    030213 048  1.5-  0.0   

820922 707  1.0+  1.6+    960422 360  0.4+  0.5-    030213 048  1.3+  0.8+  

820922 688  1.4-  0.4-    960509 867  1.7+  1.0-    030213 048  1.0-  0.3+  

820922 688  0.9-  1.6+    960509 867  1.7+  0.8-    030213 048  0.9-  0.1-  

820924 323  0.8+  2.4+    960509 867  1.7+  1.3-    030213 048  0.3+  0.6-  

820926 372  0.4-  1.4+ Y  960515 360  0.9+  0.3-    030213 048  0.2+  1.1-  

820926 372  0.6+  2.4+ Y  960515 360  1.0+  0.3-    030213 048  0.3-  0.3-  

821001 657  2.5-  2.3+    960516 691 (2.6+  0.3+)   030213 048  0.2+  0.0   

821011 657  1.4+  1.8+    960516 691 (2.8+  0.4+)   030216 213  1.5+  1.5+  

821012 707  1.7+  1.3+    960516 691 (2.6+  0.2+)   030216 213  1.1+  0.6+  

821012 657  0.3-  1.3+    960606 360  1.4+  0.6-    030216 213  1.0+  0.6+  

821013 657  1.5+  2.3+    960606 360  1.2+  0.1-    030221 636  0.0   1.4+  

821014 657 (0.5-  4.1+)   961214 691  0.0   1.0+    030221 636  0.4+  1.5+  

821014 210 (1.4-  3.8+)   961214 691  1.2-  1.4+    030221 636  0.1+  1.4+  

821015 657  1.4-  2.6+    961214 691  1.3+  0.2+    030221 048  0.2-  0.9+  

821015 056 (2.7+  3.9+)   1997/                     030221 048  0.1-  1.1+  

821015 056  2.4-  1.3+    970531 691  0.1-  1.5-    030221 048  0.2+  0.2+  

821016 491  0.7+  2.1+    970531 691  0.0   1.2-    030221 048  0.1+  0.8+  

821017 491  0.8-  0.7+    970531 691  1.7-  0.2-    030221 048  0.9+  0.6+  

821017 046  0.5+  1.0+    2002/                     030221 048  0.9+  0.1+  

821017 056 (3.4+  2.8+)   020618 349  0.9-  1.9-    030221 048  0.0   0.8+  

821018 056  1.2-  0.9-    020618 349  1.1-  1.8-    030221 048  0.8+  0.4+  

821018 657  1.8+  2.3+    020618 349 (0.5-  2.0-)   030221 048  0.2+  0.3+  

821018 801  0.2-  1.4+    020707 349  0.4-  0.3-    030221 048  1.1+  0.3+  

821018 056  2.0-  2.0+    020707 349  0.1-  0.4-    030221 A18 (5.8-  0.9+) 

821018 056 (3.5-  2.8+)   020707 349  0.8-  0.2-    030222 A18 (0.5+  3.4+) 

821019 657  1.3+  0.4-    020707 349  0.6-  0.0     030222 048  0.6-  0.2+  

821020 657  0.3+  0.4-    020711 349  1.0-  0.1-    030222 048  1.1-  0.5+  

821021 046  0.9+  1.5+    020711 349  0.3-  0.5-    030222 048  0.9-  0.1+  

821021 046  1.8+  1.9+    020712 349  0.3+  1.3+    030222 048  0.9-  0.2+  

821022 046  0.1+  1.8+    020712 349  0.3+  0.2-    030222 048  0.4-  0.3+  

